Location: Altmerdingsen
(52.4652°N, 10.1313°E)
Time: 23:58:46
(UTC+00:00)

Daily predictions for brighter satellites

Satellite Brightness Start Highest point End
(mag) Time Altitude Azimuth Time Altitude Azimuth Time Altitude Azimuth
Cosmos 1626 Rocket 3.9 15:39:49 10° N 15:43:59 42° ENE 15:48:05 10° SE
Cosmos 2084 3.4 15:40:47 10° SW 15:45:00 86° NW 15:49:10 10° NE
IGS 5A 3.6 15:41:51 10° SE 15:45:38 45° ENE 15:49:27 10° N
Cosmos 2227 Rocket 2.9 15:41:10 10° NNW 15:46:10 31° NE 15:51:09 10° ESE
MOS 1 Rocket 4.5 15:42:58 10° ESE 15:46:58 25° ENE 15:51:08 10° N
Cosmos 1892 Rocket 4.1 15:43:52 10° NNW 15:48:18 66° W 15:52:42 10° S
NOSS 2-2 (D) 4.1 15:48:26 10° S 15:51:12 25° SE 15:53:46 10° ENE
Cosmos 2369 Rocket 3.1 15:46:18 10° WSW 15:51:43 45° NW 15:57:12 10° NNE
Cosmos 2084 Rocket 3.7 15:47:53 10° NW 15:51:59 48° NNE 15:56:05 10° ESE
Cosmos 1943 Rocket 4.2 15:49:15 10° WNW 15:52:26 15° NNW 15:55:36 10° NNE
Cosmos 724 4.4 15:47:24 10° NW 15:53:30 66° NE 15:59:25 10° SE
Thor Agena Rocket 3.7 15:49:29 10° SE 15:54:33 54° ENE 15:59:35 10° N
BlueWalker 3 3.2 15:52:06 10° W 15:55:32 41° SSW 15:58:59 10° SE
Meteor 1-28 Rocket 3.5 15:55:56 10° NNE 15:59:05 36° E 16:02:12 10° SSE
Cosmos 1356 Rocket 3.3 15:55:12 10° S 15:59:14 71° E 16:03:20 10° NNE
Cosmos 2026 Rocket 4.4 15:54:07 10° NNW 16:00:19 72° W 16:06:35 10° S
Cosmos 2278 Rocket 4.2 15:58:49 10° WNW 16:02:03 15° NNW 16:05:19 10° NNE
Cosmos 1544 Rocket 4.0 16:00:05 10° SSE 16:04:12 41° E 16:08:23 10° NNE
Cosmos 1484 Rocket 2.5 16:01:21 10° SSE 16:04:52 89° ENE 16:08:24 10° NNW
Cosmos 1697 Rocket 4.1 16:02:03 10° SE 16:05:41 18° E 16:09:00 11° ENE
IRS-1C 4.4 16:00:42 10° SE 16:05:44 45° ENE 16:10:48 10° N
NOSS 2-2 (E) 4.0 16:02:59 10° S 16:05:51 27° SE 16:08:05 13° ENE
Intercosmos 24 3.6 16:04:12 10° N 16:08:18 72° ENE 16:11:50 10° SSE
Cosmos 405 Rocket 2.2 16:05:11 10° NNW 16:08:28 88° ENE 16:11:42 10° SSE
Cosmos 1634 Rocket 4.0 16:04:10 10° S 16:10:20 79° E 16:16:32 10° NNE
Okean 1-7 Rocket 4.2 16:06:38 10° N 16:10:37 32° ENE 16:14:33 10° SE
Lacrosse 5 rocket 1.0 16:09:34 10° WSW 16:13:19 81° NNW 16:16:22 14° ENE
CENTAUR R/B 2.8 16:12:22 10° SW 16:18:14 74° NW 16:25:22 11° NE
Cosmos 1461 4.3 16:15:23 10° SSE 16:18:14 20° ESE 16:20:09 14° E
Meteor 1-20 Rocket 4.2 16:14:19 10° N 16:19:42 53° ENE 16:25:01 10° SSE
Cosmos 1602 Rocket 3.6 16:18:04 10° N 16:22:26 55° ENE 16:26:42 10° SSE
Cosmos 1455 Rocket 4.1 16:18:26 10° SSW 16:22:37 46° WNW 16:26:51 10° N
Cosmos 2279 Rocket 4.0 16:18:46 10° S 16:24:56 73° E 16:31:10 10° NNE
IRIDIUM 103 4.4 16:22:28 10° N 16:27:37 54° E 16:32:43 10° SSE
SMAP 3.0 16:26:30 10° SSE 16:31:08 83° ENE 16:35:50 10° NNW
ERS-1 4.5 16:26:53 10° SE 16:31:47 58° ENE 16:36:41 10° N
UNK 3.8 16:27:26 10° NNE 16:31:58 56° E 16:36:27 10° S
Cosmos 1656 3.7 16:27:04 10° SSW 16:32:39 68° ESE 16:37:56 12° NE
YAOGAN 1 3.5 16:31:37 10° ESE 16:35:06 25° ENE 16:38:35 10° N
Cosmos 1867 3.5 16:30:13 10° NW 16:35:43 75° NE 16:41:10 10° SE
Cosmos 2228 3.5 16:32:00 10° SSW 16:36:11 61° WNW 16:40:25 10° N
NOSS 2-2 (C) 2.9 16:33:10 10° WSW 16:36:16 63° NW 16:38:05 21° NE
Landsat 7 3.7 16:32:00 10° SSE 16:36:38 73° ENE 16:41:18 10° N
SAR-Lupe-4 3.4 16:33:23 10° SSE 16:36:55 67° ENE 16:40:27 10° N
Cosmos 1486 Rocket 4.1 16:32:36 10° S 16:37:42 60° ESE 16:42:24 13° NNE
NOSS 7 (H) 3.9 16:35:42 10° NW 16:38:36 66° NE 16:41:17 13° SE
Cosmos 2297 Rocket 2.4 16:33:50 10° NNW 16:39:31 75° WSW 16:45:10 10° SSE
USA 290 2.5 16:36:20 10° NNW 16:39:36 71° WSW 16:42:50 10° SSE
USA 215 3.4 16:35:28 16° ENE 16:40:43 61° N 16:47:10 10° WNW
Cosmos 2180 Rocket 4.4 16:36:23 10° S 16:42:28 70° E 16:48:36 10° NNE
Cosmos 1953 Rocket 4.2 16:41:14 10° N 16:45:13 32° ENE 16:49:13 10° SE
Resurs 01 Rocket 3.7 16:47:36 12° NNE 16:47:36 12° NNE 16:48:09 10° NNE
SAR-Lupe-1 3.9 16:42:22 10° SSE 16:45:57 74° ENE 16:49:35 10° NNW
IRIDIUM 106 4.2 16:40:44 10° N 16:46:00 75° E 16:51:13 10° S
Cosmos 1782 2.6 16:42:57 10° SSW 16:46:34 78° W 16:50:11 10° N
ATLAS CENTAUR R/B 2.8 16:43:44 10° WNW 16:46:37 29° WSW 16:49:25 10° S
CZ-4C R/B 3.0 16:40:54 10° NW 16:47:37 84° SW 16:56:07 10° SE
Cosmos 1607 4.3 16:42:41 10° NW 16:48:52 69° SW 16:55:06 10° SSE
Cosmos 1733 4.3 16:47:55 10° NW 16:49:07 17° W 16:50:18 10° SW
CZ-2D R/B 2.7 16:49:21 10° SSE 16:52:29 85° WSW 16:55:39 10° NNW
Meteor 1-25 Rocket 4.2 16:49:12 10° N 16:55:03 76° ENE 17:00:50 10° SSE
IRS-P3 4.0 16:50:09 10° SSE 16:55:28 77° ENE 17:00:48 10° NNW
Cosmos 1825 Rocket 3.5 16:51:53 10° N 16:56:13 61° ENE 17:00:29 10° SSE
Lacrosse 4 Rocket 2.9 16:52:45 10° W 16:56:16 27° NW 16:59:05 14° NNE
Cosmos 2219 3.7 16:50:58 10° NNW 16:56:18 38° NE 16:59:37 21° ESE
ARIANE 5 R/B 2.7 16:52:11 10° SSE 16:57:14 77° WSW 17:02:24 10° NNW
Cosmos 990 Rocket 4.5 16:53:02 10° S 16:57:41 37° ESE 16:59:48 26° ENE
Cosmos 2266 Rocket 3.9 16:52:19 10° N 16:58:33 89° W 17:04:38 10° S
Meteor 1-5 Rocket 4.1 16:57:17 10° N 17:02:34 59° ENE 17:07:55 10° SSE
Cosmos 2098 Rocket 3.4 16:58:53 10° SSW 17:03:00 69° WNW 17:07:55 10° N
Cosmos 2151 3.4 16:59:41 10° NNW 17:03:48 62° W 17:07:54 10° S
Cosmos 1743 3.7 17:01:23 10° NNW 17:04:28 39° W 17:07:30 10° SSW
SPOT 1/Viking Rocket 3.5 17:02:01 10° SSE 17:07:10 68° ENE 17:12:21 10° N
Cosmos 1980 Rocket 3.2 17:03:28 10° SSE 17:07:57 25° ESE 17:08:01 25° ESE
Cosmos 1844 Rocket 3.9 17:06:16 10° NNW 17:10:42 23° NE 17:10:59 23° NE
SL-16 R/B 3.4 17:08:37 10° N 17:14:36 49° WNW 17:20:30 10° SW
Cosmos 2263 Rocket 2.1 17:12:18 10° NNW 17:17:58 66° NE 17:23:09 12° SE
NOSS 3-2 (C) 3.1 17:15:11 10° SSW 17:20:17 71° SE 17:23:02 33° NE
NOSS 3-2 (A) 3.5 17:15:16 10° WSW 17:20:28 64° NW 17:24:05 26° NE
GEOS 3 Rocket 3.8 17:19:36 26° NE 17:22:41 74° NW 17:28:03 10° SW
CZ-4 R/B 4.3 17:20:06 10° SSE 17:24:03 84° WSW 17:28:01 10° NNW
MOS 1 Rocket 3.9 17:19:42 10° S 17:24:33 63° W 17:29:43 10° NNW
Cosmos 1076 Rocket 3.3 17:21:16 10° N 17:25:35 77° ENE 17:29:53 10° SSE
BREEZE M DEB (TANK) 4.0 17:24:23 10° SW 17:25:20 18° SSW 17:25:20 18° SSW
Cosmos 1933 3.2 17:25:17 10° SSW 17:29:07 79° W 17:30:45 33° N
Cosmos 2227 Rocket 2.5 17:25:04 10° NW 17:30:42 69° WSW 17:36:17 10° SSE
Cosmos 1538 Rocket 3.9 17:26:22 10° NNW 17:31:40 75° ENE 17:36:28 13° SSE
Cosmos 1606 Rocket 3.5 17:28:12 10° SSW 17:32:36 83° W 17:35:24 23° N
PSLV R/B 3.2 17:36:04 47° SE 17:37:07 76° ENE 17:41:12 10° NNW
Cosmos 2369 Rocket 4.3 17:33:39 10° WNW 17:37:15 17° NNW 17:40:31 11° NNE
COSMO-SKYMED 1 3.3 17:39:14 35° SSE 17:39:14 35° SSE 17:41:51 10° S
CZ-2D R/B 3.5 17:33:43 10° SSE 17:37:55 79° WSW 17:42:06 10° NNW
Cosmos 1943 Rocket 4.3 17:37:06 10° NNW 17:38:44 11° N 17:39:20 11° NNE
NOSS 2-2 (D) 4.0 17:37:22 10° WSW 17:40:03 33° NW 17:40:03 33° NW
Cosmos 1244 Rocket 4.4 17:34:31 10° N 17:40:48 63° ENE 17:46:58 10° SSE
SL-19 R/B 4.1 17:36:13 10° SSE 17:41:36 84° ENE 17:47:19 10° NNW
Resurs 1-3 3.4 17:37:38 10° SSE 17:41:57 89° W 17:46:17 10° NNW
Cosmos 1503 Rocket 4.3 17:38:09 10° SW 17:43:23 67° WNW 17:46:10 27° NNE
BREEZE-M DEB (TANK) 4.2 17:40:18 10° W 17:43:55 62° S 17:48:33 28° ESE
Meteor 2-20 4.3 17:42:09 10° S 17:48:18 79° E 17:54:09 12° NNE
Cosmos 2278 Rocket 4.3 17:46:39 10° NNW 17:48:45 12° N 17:49:06 12° N
Cosmos 1697 Rocket 2.6 17:43:15 10° SSW 17:48:51 89° ESE 17:50:45 44° NNE
Lacrosse 5 rocket 2.2 17:47:08 10° WNW 17:49:58 36° NW 17:49:58 36° NW
Cosmos 1354 Rocket 4.0 17:46:20 10° SSW 17:51:36 78° WNW 17:53:34 39° NNE
BREEZE-M DEB (TANK) 4.1 17:49:17 10° W 17:53:03 87° S 17:57:03 37° ESE
Cosmos 1461 3.0 17:50:43 10° SW 17:54:18 63° WNW 17:54:18 63° WNW
Spot 4 Rocket 4.3 17:50:40 10° S 17:55:44 68° WSW 18:00:52 10° NNW
IRAS Rocket 4.3 17:51:24 10° SSE 17:56:53 78° WSW 18:02:24 10° NNW
Cosmos 1726 Rocket 4.0 17:53:19 10° SSW 17:57:56 65° WNW 17:59:49 34° N
SL-08 R/B 4.4 17:52:46 10° N 17:59:06 71° ENE 18:05:26 10° SSE
Cosmos 1655 Rocket 4.4 17:53:37 10° NNW 17:59:47 62° W 18:05:53 10° S
SKYMED 2 3.8 17:59:35 55° NNW 18:00:20 68° WNW 18:04:39 10° SSW
Gbstr 26 Del rocket 4.2 18:00:20 10° SW 18:02:38 29° SSW 18:02:38 29° SSW
Meteor 2-10 4.3 18:01:51 10° NNW 18:07:09 71° W 18:12:37 10° S
CENTAUR R/B 3.7 18:03:55 10° W 18:10:01 39° NNW 18:12:27 31° NNE
Meteor 2-20 Rocket 4.3 18:04:12 10° S 18:10:27 82° E 18:12:29 45° NNE
YAOGAN 1 3.5 18:06:38 10° S 18:10:44 46° W 18:14:52 10° NNW
Cosmos 923 Rocket 4.4 18:08:42 10° NNW 18:12:38 51° N 18:12:38 51° N
USA 281 4.0 18:17:15 35° NNE 18:17:15 35° NNE 18:21:52 10° NNW
Cosmos 2082 3.6 18:11:01 10° NNW 18:16:46 88° WSW 18:17:04 81° SSE
USA 238 DEB 3.5 18:14:23 10° SSW 18:19:57 62° SSE 18:19:57 62° SSE
USA 238 3.6 18:14:29 10° SSW 18:20:02 61° SSE 18:20:02 61° SSE
Resurs 01 Rocket 4.0 18:25:00 14° NNW 18:25:00 14° NNW 18:25:38 10° NNW
USA 215 3.1 18:22:49 71° ENE 18:23:30 79° NNE 18:30:05 10° WNW
Lacrosse 4 Rocket 4.2 18:34:30 10° NNW 18:34:34 10° NNW 18:34:34 10° NNW
Cosmos 2219 3.9 18:35:06 10° NW 18:40:39 53° WSW 18:41:35 48° SW
Cosmos 1980 Rocket 3.0 18:45:47 10° SW 18:49:48 46° SW 18:49:48 46° SW
Cosmos 1844 Rocket 4.1 18:49:50 10° NNW 18:52:37 30° NNW 18:52:37 30° NNW
Cosmos 2263 Rocket 4.0 18:56:47 10° NW 19:01:28 27° WSW 19:04:58 15° SSW
NOSS 3-2 (C) 4.5 19:06:20 10° W 19:10:27 38° NW 19:10:27 38° NW
CENTAUR R/B 4.3 19:55:41 10° NW 19:59:34 30° NNW 19:59:34 30° NNW
